SHIYAN 6 03 (SY-6 03)

Satellite information

Favourite Embed

Satellite Type and Status

PAYLOADIN ORBIT

Key statistics

Satellite SHIYAN 6 03 (SY-6 03) at a glance.

Uptime

1492

Days in orbit

Revolutions

≈ 13.8

Per day

Orbit

SSO

Sun Synchronous Orbit

Inclination

99.5

Latest

Satellite identification and parameters

Extended collection of information and parameters for SHIYAN 6 03 (SY-6 03).

Object identification

Identified? True

Debris? False

Object name: SHIYAN 6 03 (SY-6 03)

International designator: 2021-028A

Object number (NORAD): 48157

Object ID (CCSDS): 48157

Country: PEOPLES REPUBLIC OF CHINA (PRC)

Current information (Y/N): Y

RCS size: LARGE

Orbital parameters

Period: 104.532 minutes

Inclination: 99.5357 deg

SMA: 7350.654 km

Apoapsis: 1007.17 km

Periapsis: 937.868 km

RAAN: 135.2921 deg

Eccentricy: 0.004714

Argument of periapsis: 68.3261 deg

Mean anomaly: 292.29 deg

Mean motion: 13.77570478 rev/day

Mean motion (dot): 0.00000003 rev/day2

B* drag term: 0.000047882 1/REarth

Two-line elements (TLE)

Creation date: May 8, 2025, 3:01 a.m.

Reference frame: TEME

Reference center: EARTH

Epoch: May 7, 2025, 5:54 p.m. UTC

TLE line 0: 0 SHIYAN 6 03 (SY-6 03)

TLE line 1: 1 48157U 21028A 25127.74591692 .00000003 00000-0 47882-4 0 9994

TLE line 2: 2 48157 99.5357 135.2921 0047140 68.3261 292.2900 13.77570478203682

Live tracking on map

Real-time ground track for satellite SHIYAN 6 03 (SY-6 03).

In-orbit conjunctions

There are no conjunctions computed for SHIYAN 6 03 (SY-6 03), at the moment. Check back to stay up to date, as we update our databases every day.

Go to all conjunctions

Associated space launch

SHIYAN 6 03 (SY-6 03) was lifted into orbit during the mission ‘Long March 4B | Shiyan-6-03’, on board a Long March 4B space rocket.

The launch took place on April 8, 2021, 11:01 p.m. from Launch Complex 9.

For more information about the launch, click the button.

Launch to space Long March 4B | Shiyan-6-03
Long March 4B | Shiyan-6-03

Agency: N/A

Status: Launch Successful

Launch date: April 8, 2021, 11:01 p.m. UTC

Rocket: Long March 4B

Launch pad: Launch Complex 9

Location: Taiyuan Satellite Launch Center, People's Republic of China

...

Latest news about this satellite

News about space launch
China launches experimental satellite on a Long March 4B

China launched an experimental satellite from the Taiyuan Satellite Launch Center on Friday morning using the Long March-4B – Chang Zheng-4B – (Y49) rocket. The launch took place at 23:01 UTC (Thursday) from Launch Complex LC9.

News about space launch
China launches experimental Shiyan satellite

China launched the third in a series of experimental Shiyan 6 satellites April 8 aboard a Long March 4B rocket, beginning a mission to test new space technologies, including a new super-black coating to absorb stray light and improve the sensitivity of on...


Newsletter sign-up

Weekly statistics, charts and insights to help you stay on top of the space industry.